Wind_Speed
17 15 13 11 11 9 6 3 1 0 4 8 11 11 12 14 15 17 18 18 19 20 20 19 18 18 17 17 16 14 14 12 11 9 6 5 3 1 1 2 2 2 2 2
18 16 14 13 12 10 8 5 3 2 4 8 10 10 10 13 13 14 16 17 18 19 19 19 18 17 17 17 16 15 14 13 11 10 8 5 4 2 2 3 3 3 3 3
19 17 16 14 13 12 9 7 6 5 5 8 10 10 10 13 14 13 15 17 17 18 18 18 17 16 16 16 16 15 13 12 11 10 8 7 5 4 2 2 3 3 4 4
19 18 17 15 14 12 10 8 8 7 7 8 8 9 10 12 12 13 14 15 16 17 17 17 17 16 15 16 15 15 13 13 12 10 9 7 6 5 3 3 4 4 4 5
20 19 18 16 15 13 11 10 10 9 8 8 8 9 9 11 12 13 15 15 15 17 16 16 16 16 15 15 15 14 13 13 12 11 10 8 7 6 4 4 4 4 4 5
21 20 18 16 15 14 13 13 12 11 10 9 9 10 10 11 12 13 14 15 15 16 15 14 15 15 15 15 15 14 13 13 12 11 10 8 7 6 5 4 4 4 5 6
22 21 18 17 15 15 15 15 14 12 10 8 9 11 11 10 11 11 13 14 14 15 14 14 14 16 16 15 15 14 14 13 13 12 10 9 8 6 6 5 5 5 6 8
24 22 20 18 16 15 16 16 15 13 10 9 10 11 10 9 10 10 11 12 13 14 14 15 15 15 15 15 15 15 15 14 13 13 12 10 8 7 6 6 6 6 7 8
25 23 21 19 17 16 17 16 15 14 12 11 11 11 10 9 9 10 10 11 12 12 14 15 14 15 15 15 15 16 15 14 14 13 12 11 9 7 7 7 7 6 7 7
25 23 22 20 19 18 17 17 17 16 14 13 12 11 10 9 9 11 11 11 11 12 13 14 14 15 15 15 15 16 16 15 14 13 13 12 11 10 8 8 8 7 8 8
26 24 23 22 21 19 18 19 20 19 17 16 14 13 11 9 10 11 11 10 10 12 13 14 14 15 15 15 16 16 15 15 15 14 14 14 13 12 10 9 9 9 9 9
27 26 25 24 22 20 20 20 20 19 18 17 16 14 13 11 11 11 11 11 11 12 13 13 14 15 15 15 16 16 16 15 15 15 15 14 13 12 12 11 10 11 12 11
28 28 27 26 24 22 21 20 20 20 19 18 18 16 14 13 12 11 11 12 11 11 13 13 14 14 15 16 15 15 15 16 16 16 15 15 14 14 13 12 12 12 12 12
29 30 29 28 26 24 23 21 21 21 21 20 19 19 17 15 14 13 13 13 12 13 14 14 14 15 16 16 16 16 16 16 16 17 17 16 15 15 14 14 13 13 13 13
31 31 30 29 27 26 25 23 22 22 21 21 20 20 18 16 15 14 15 14 14 15 14 14 15 15 16 17 17 17 17 17 17 18 18 17 17 17 16 15 15 14 14 14
33 34 32 30 29 28 27 25 23 23 22 21 21 21 19 18 17 17 17 16 16 16 15 15 16 16 16 17 17 17 17 17 18 19 19 19 19 18 18 17 16 16 16 16
34 34 34 33 32 30 29 27 26 25 23 23 23 22 22 22 21 20 19 18 18 17 17 16 17 17 17 18 18 18 19 19 19 20 20 20 20 20 19 19 18 18 18 17
35 35 35 34 34 35 31 28 28 28 26 25 25 25 24 23 23 23 22 20 19 18 18 18 19 19 19 20 20 21 21 21 21 20 21 20 21 21 21 20 20 20 19 19
35 35 35 35 36 36 33 30 29 29 28 27 27 27 26 25 25 25 23 21 22 21 20 21 21 20 20 21 21 22 23 23 23 22 22 22 22 22 22 22 21 20 20 20
35 35 36 36 36 37 33 32 31 31 30 29 29 29 28 27 28 26 25 23 23 22 22 22 22 22 21 21 22 23 24 24 24 24 24 24 24 24 24 23 22 22 22 22
35 35 36 36 36 37 35 34 33 34 32 30 30 29 28 28 28 27 27 25 25 24 23 23 24 23 23 23 24 25 25 25 26 26 26 26 25 26 25 24 24 23 23 23
36 36 36 36 36 36 35 35 35 34 32 32 31 30 28 28 29 29 28 27 26 25 24 24 25 24 25 25 25 26 26 27 27 27 27 26 26 26 25 25 25 24 24 24
37 36 37 38 38 36 36 37 36 35 33 32 31 30 29 29 29 29 29 28 26 26 26 26 26 26 26 26 27 27 27 27 27 27 26 26 26 26 25 25 25 25 24 24
37 37 38 38 38 37 37 36 36 35 34 32 31 30 30 29 28 29 29 27 27 26 26 26 27 27 28 27 28 28 28 28 27 27 27 26 27 26 26 26 26 26 26 26
39 38 38 38 37 38 36 35 34 35 35 34 33 32 31 30 30 29 27 27 27 26 26 27 27 28 29 29 28 29 29 29 28 28 28 28 27 27 27 26 26 27 27 27
39 39 39 38 36 36 34 34 34 34 34 33 32 32 32 31 32 31 31 30 29 28 28 28 28 28 29 29 29 30 30 29 29 28 28 28 27 27 27 27 27 28 28 28
Wind_Direction
187 184 184 178 171 171 172 180 148 32 351 345 341 348 2 9 15 17 18 23 24 23 25 25 27 27 24 24 26 27 25 23 21 20 20 15 16 347 249 246 228 228 228 223
194 191 191 186 182 188 193 198 203 217 314 326 333 340 357 3 5 16 16 15 17 18 20 23 23 23 22 21 24 25 26 26 23 21 19 14 6 338 288 262 248 239 235 232
198 198 196 195 195 194 203 213 220 245 276 307 318 331 346 351 353 1 9 12 14 14 17 19 20 20 21 19 19 20 22 22 21 19 17 14 11 352 328 286 256 245 238 238
202 203 204 201 198 207 212 212 219 236 258 283 300 315 333 338 346 358 3 5 11 13 14 17 18 18 18 17 17 17 20 20 18 17 14 11 6 351 330 293 264 248 243 245
206 208 211 206 203 210 216 216 217 230 245 266 288 308 322 329 344 351 357 1 5 10 12 13 15 16 15 16 16 16 17 17 16 15 14 11 4 350 335 305 279 264 256 252
213 213 216 214 210 210 207 204 211 227 243 261 279 293 309 324 337 341 350 1 3 6 9 10 12 13 14 15 15 13 15 14 14 13 9 3 358 350 337 325 303 282 273 269
215 216 217 217 214 211 209 206 211 223 236 257 271 279 294 314 327 337 349 358 1 360 3 5 9 14 13 13 15 14 14 13 12 11 6 359 349 343 335 319 306 294 284 277
216 216 216 218 219 218 218 217 217 226 237 252 262 270 282 305 316 333 341 351 354 357 2 2 7 10 10 11 13 13 11 9 9 7 4 359 348 339 331 322 311 299 294 287
218 217 216 219 221 220 217 219 220 230 235 245 256 261 276 300 320 328 331 345 352 353 356 358 2 7 5 6 7 9 9 7 6 4 2 358 351 338 326 319 313 307 302 299
220 218 215 217 215 215 214 220 224 231 237 246 255 263 274 295 318 331 332 339 346 347 348 350 355 360 359 359 360 3 5 5 2 1 358 353 350 345 332 322 316 310 304 298
217 215 211 213 213 212 218 221 224 230 238 247 253 259 266 282 301 320 327 330 333 334 339 346 348 351 353 353 354 356 358 359 358 358 356 351 348 344 338 330 319 312 306 300
218 218 214 213 212 214 220 225 228 233 238 246 251 258 266 279 293 307 317 321 324 327 333 338 340 344 348 348 350 352 353 354 354 355 355 352 350 345 339 331 321 313 308 302
217 220 218 215 213 215 221 226 230 235 239 244 250 258 265 275 285 291 304 312 318 324 325 327 331 336 341 342 344 346 347 348 348 350 350 349 345 340 336 330 322 317 313 309
218 221 223 223 220 221 222 225 228 232 239 245 250 257 265 273 283 283 293 304 309 316 320 322 326 329 334 335 337 339 341 341 342 342 342 343 342 338 335 330 323 319 317 315
220 222 223 224 223 225 227 227 228 231 236 243 249 255 264 271 274 279 286 295 303 311 316 320 320 322 325 328 331 333 333 335 335 334 335 336 334 333 331 329 325 320 317 314
223 223 223 223 224 225 226 226 228 230 232 238 245 251 257 264 267 276 282 288 296 301 307 313 315 315 318 321 323 325 326 327 328 329 329 330 328 328 327 326 326 323 318 314
227 227 226 225 224 228 226 226 228 230 234 240 245 251 254 262 267 271 277 282 289 295 300 308 311 310 312 314 315 317 319 319 320 321 322 322 322 322 322 321 320 319 317 312
229 230 230 229 227 230 227 227 231 231 234 240 246 250 254 258 265 272 276 282 287 292 299 305 306 306 307 309 310 312 314 313 313 316 317 317 316 316 316 317 315 314 315 312
230 230 232 231 230 230 226 225 229 232 234 238 243 248 252 258 263 269 274 278 285 289 294 299 301 303 303 304 306 308 310 313 312 312 313 313 313 312 312 311 310 310 310 309
231 232 233 232 232 230 227 225 228 232 235 238 243 247 252 259 264 270 273 276 281 284 289 293 297 300 300 301 303 305 306 308 309 309 310 311 310 309 308 307 306 305 306 305
230 231 232 231 232 231 228 228 230 234 237 240 244 248 252 258 265 270 273 274 277 281 284 289 292 296 298 300 302 304 305 305 307 307 307 309 308 308 306 305 304 303 302 303
229 231 232 232 232 231 229 230 233 238 240 242 245 248 251 256 261 266 271 272 275 278 282 285 288 291 295 298 300 302 303 304 305 305 305 306 305 306 305 304 303 302 302 302
229 231 232 232 233 233 232 232 233 236 240 243 248 252 252 255 259 264 268 268 271 276 279 283 286 289 293 296 298 300 301 302 304 304 304 304 304 304 303 303 302 302 303 303
228 230 232 233 234 235 234 234 234 237 241 244 248 251 252 255 258 261 264 266 271 277 279 282 285 288 291 293 295 297 300 301 302 303 302 303 302 301 301 301 301 301 301 302
229 230 231 233 234 234 233 234 235 237 239 243 247 249 253 256 259 262 266 269 272 278 281 282 284 287 289 292 294 297 298 300 301 302 301 301 300 299 300 301 301 301 301 301
228 231 231 232 234 234 234 234 237 239 240 242 245 248 251 256 260 264 267 270 274 278 280 282 285 286 289 292 294 296 298 299 300 301 301 301 301 300 300 300 301 301 301 301
Height
5939 5942 5943 5944 5945 5946 5946 5947 5947 5947 5947 5946 5946 5944 5942 5940 5938 5936 5934 5932 5930 5927 5924 5920 5917 5914 5912 5909 5906 5904 5902 5900 5898 5897 5896 5895 5895 5895 5895 5895 5895 5895 5895 5895
5938 5940 5942 5943 5944 5945 5946 5946 5946 5946 5947 5946 5945 5944 5942 5940 5938 5937 5935 5933 5930 5928 5925 5922 5919 5916 5913 5910 5908 5905 5903 5900 5899 5897 5896 5896 5895 5894 5894 5894 5894 5894 5894 5894
5935 5938 5939 5941 5942 5944 5944 5944 5945 5946 5946 5945 5944 5944 5942 5941 5939 5936 5935 5933 5931 5928 5926 5923 5920 5917 5914 5911 5908 5905 5903 5901 5899 5898 5896 5895 5895 5894 5893 5893 5893 5893 5892 5893
5933 5935 5937 5938 5940 5941 5943 5943 5944 5945 5945 5945 5944 5943 5942 5940 5939 5937 5935 5933 5931 5928 5926 5923 5921 5917 5914 5912 5909 5906 5904 5902 5900 5898 5896 5895 5894 5893 5893 5892 5892 5891 5891 5892
5930 5932 5933 5936 5938 5939 5940 5941 5942 5943 5943 5944 5943 5943 5942 5940 5938 5937 5935 5933 5931 5929 5926 5924 5921 5918 5915 5912 5909 5907 5904 5902 5900 5898 5897 5895 5894 5893 5892 5892 5891 5890 5890 5890
5927 5929 5931 5934 5936 5937 5938 5939 5941 5941 5941 5942 5942 5942 5941 5939 5938 5936 5935 5933 5930 5928 5926 5924 5921 5919 5916 5913 5910 5907 5905 5902 5900 5898 5897 5895 5894 5893 5892 5891 5890 5890 5889 5889
5923 5926 5928 5931 5933 5935 5936 5937 5939 5939 5940 5940 5940 5939 5940 5938 5937 5936 5934 5932 5930 5928 5926 5924 5921 5919 5916 5913 5910 5907 5905 5902 5900 5898 5896 5894 5893 5892 5891 5890 5889 5888 5887 5887
5918 5922 5925 5927 5930 5932 5933 5935 5937 5938 5938 5938 5938 5937 5937 5936 5935 5934 5933 5932 5929 5928 5926 5924 5922 5919 5916 5914 5911 5908 5905 5903 5900 5898 5896 5894 5892 5891 5890 5889 5888 5887 5886 5885
5914 5919 5922 5924 5926 5928 5930 5931 5933 5934 5935 5935 5935 5935 5935 5934 5933 5932 5932 5930 5929 5927 5926 5924 5921 5919 5916 5914 5911 5908 5905 5903 5900 5897 5895 5893 5891 5889 5888 5887 5886 5885 5884 5883
5910 5914 5918 5920 5922 5924 5927 5928 5930 5931 5932 5932 5931 5931 5933 5932 5931 5931 5930 5929 5928 5927 5925 5923 5921 5918 5916 5913 5910 5908 5905 5902 5899 5897 5894 5892 5890 5888 5887 5885 5884 5883 5882 5881
5905 5909 5912 5915 5917 5920 5923 5925 5926 5927 5928 5929 5929 5931 5930 5930 5930 5929 5929 5928 5927 5926 5924 5922 5920 5917 5914 5912 5909 5907 5904 5901 5899 5896 5894 5891 5889 5887 5885 5884 5882 5881 5879 5878
5900 5904 5907 5910 5914 5916 5918 5920 5922 5924 5925 5925 5926 5929 5927 5927 5927 5927 5927 5926 5924 5923 5923 5921 5919 5916 5913 5911 5908 5906 5903 5900 5898 5895 5893 5890 5888 5886 5884 5882 5880 5878 5877 5875
5895 5898 5902 5906 5911 5912 5913 5916 5918 5920 5921 5922 5922 5926 5924 5924 5924 5925 5925 5924 5923 5922 5921 5919 5917 5915 5912 5910 5907 5905 5902 5899 5897 5894 5891 5889 5887 5884 5882 5880 5878 5876 5874 5872
5890 5893 5897 5901 5905 5907 5909 5911 5913 5915 5916 5918 5919 5920 5921 5921 5922 5922 5922 5921 5921 5920 5919 5917 5914 5912 5910 5908 5905 5903 5900 5898 5895 5892 5890 5887 5885 5882 5880 5877 5875 5873 5871 5869
5884 5888 5891 5895 5899 5902 5904 5907 5909 5910 5912 5914 5915 5916 5917 5918 5919 5919 5919 5919 5918 5917 5916 5914 5912 5910 5907 5905 5903 5900 5898 5895 5893 5890 5888 5885 5883 5880 5878 5875 5872 5870 5868 5866
5878 5882 5886 5890 5893 5896 5898 5901 5904 5906 5907 5909 5910 5911 5913 5914 5915 5915 5915 5915 5915 5914 5913 5911 5909 5907 5905 5902 5900 5898 5895 5893 5890 5888 5885 5883 5880 5877 5875 5872 5869 5867 5865 5863
5871 5875 5880 5884 5887 5889 5893 5897 5899 5901 5902 5904 5905 5908 5908 5909 5910 5911 5911 5911 5911 5910 5909 5907 5905 5904 5901 5899 5897 5894 5892 5890 5887 5885 5882 5879 5877 5874 5871 5869 5866 5863 5861 5859
5865 5869 5872 5876 5881 5882 5890 5892 5893 5895 5897 5899 5900 5902 5903 5905 5906 5906 5906 5906 5906 5905 5904 5903 5902 5900 5898 5896 5894 5891 5888 5885 5882 5880 5878 5875 5872 5870 5867 5865 5862 5859 5857 5854
5859 5862 5865 5869 5872 5876 5882 5885 5887 5889 5891 5893 5894 5896 5898 5899 5900 5901 5901 5901 5901 5900 5899 5899 5897 5896 5894 5892 5889 5887 5884 5881 5878 5875 5873 5870 5868 5865 5863 5860 5858 5855 5852 5850
5851 5854 5858 5861 5864 5868 5875 5879 5881 5883 5884 5887 5889 5890 5892 5894 5895 5896 5896 5896 5896 5895 5894 5894 5892 5891 5889 5887 5885 5882 5880 5877 5874 5871 5868 5865 5863 5860 5857 5855 5852 5850 5847 5845
5842 5846 5849 5853 5856 5861 5867 5871 5874 5877 5879 5882 5883 5885 5887 5888 5890 5891 5890 5890 5890 5889 5889 5888 5887 5885 5883 5881 5879 5877 5874 5871 5868 5865 5863 5860 5857 5854 5851 5849 5847 5844 5842 5839
5835 5838 5842 5846 5849 5855 5860 5863 5867 5870 5873 5875 5876 5878 5880 5882 5882 5883 5883 5884 5883 5883 5883 5882 5881 5879 5877 5875 5873 5871 5868 5866 5862 5859 5856 5853 5851 5848 5846 5843 5840 5838 5835 5833
5826 5832 5835 5839 5844 5848 5851 5855 5859 5862 5866 5868 5870 5872 5874 5875 5875 5876 5876 5876 5876 5877 5876 5875 5874 5872 5871 5869 5866 5864 5862 5859 5856 5853 5850 5847 5845 5842 5839 5837 5834 5832 5829 5827
5819 5823 5827 5831 5835 5839 5843 5847 5851 5855 5858 5861 5863 5865 5867 5868 5868 5869 5869 5868 5869 5869 5868 5868 5867 5865 5864 5862 5860 5858 5855 5852 5849 5847 5844 5840 5838 5835 5833 5830 5828 5826 5823 5821
5812 5815 5819 5823 5827 5831 5835 5839 5844 5847 5850 5853 5855 5858 5859 5861 5861 5861 5861 5862 5862 5862 5861 5861 5860 5858 5857 5855 5853 5851 5848 5846 5843 5840 5837 5834 5831 5829 5826 5824 5821 5819 5816 5814
5804 5807 5811 5815 5820 5823 5828 5832 5836 5839 5842 5845 5847 5850 5852 5853 5854 5854 5854 5855 5855 5855 5854 5853 5852 5851 5850 5848 5846 5844 5841 5839 5836 5833 5830 5827 5825 5822 5819 5817 5814 5812 5809 5807